Wind_Speed
46 47 47 47 47 48 48 49 49 50 50 49 49 49 50 50 50 51 51 51 52 52 52 53 53 54 55 55 55 56 57 59 60 60 60 61 60 60
47 47 48 48 48 48 48 49 49 50 50 50 50 50 50 51 51 51 52 52 53 53 53 54 54 55 56 57 57 57 58 59 61 61 62 62 62 63
48 49 50 50 49 49 49 49 49 49 50 51 51 51 51 52 52 52 52 53 53 54 54 55 55 56 57 58 57 57 58 58 59 60 61 62 63 63
49 49 49 49 49 49 49 48 48 49 50 51 52 51 52 52 53 52 52 53 53 54 54 55 55 56 56 57 57 57 58 58 59 59 59 61 61 61
48 48 47 47 47 47 47 47 47 48 49 49 50 51 51 51 52 52 52 52 53 54 54 55 55 56 57 56 56 57 57 57 57 58 57 58 59 60
47 47 46 46 46 46 46 46 46 46 47 48 49 50 49 50 50 51 52 52 53 54 54 55 55 55 56 56 56 56 57 57 56 57 57 57 58 59
46 46 46 46 45 45 45 45 45 46 47 48 49 49 49 50 50 50 51 52 53 54 54 55 55 55 55 55 55 56 56 56 56 56 57 58 58 59
45 46 46 46 45 45 46 46 45 45 46 47 48 49 49 50 50 51 52 52 53 54 54 54 54 54 54 54 54 54 54 55 56 56 56 57 57 58
46 46 46 45 46 46 46 46 46 46 46 46 47 48 49 50 50 51 52 52 52 53 53 52 53 52 53 53 53 52 53 54 55 55 55 55 55 55
45 45 45 45 46 47 47 48 48 47 47 47 47 48 50 50 51 51 52 52 52 53 53 53 53 53 54 54 53 53 53 53 54 54 55 55 54 54
45 45 46 46 47 47 48 48 49 49 48 48 48 48 50 51 52 52 52 52 52 52 53 53 53 53 53 53 54 53 53 53 52 53 53 53 53 53
47 47 47 47 48 48 49 49 49 50 50 50 50 49 50 51 52 52 52 52 52 52 52 52 52 52 52 52 53 53 53 52 51 51 52 52 53 53
48 48 48 48 48 48 49 49 49 50 51 50 50 50 50 50 51 52 52 53 53 53 53 53 52 52 52 51 52 53 52 51 51 51 50 51 51 52
48 48 48 48 48 48 48 49 49 50 50 51 50 50 51 51 51 52 52 53 53 53 53 52 51 51 50 50 50 50 51 51 51 50 50 50 50 50
47 47 47 47 47 47 48 49 49 50 50 51 51 51 51 51 51 51 51 51 52 52 52 51 51 50 50 50 49 49 49 49 50 50 50 50 50 50
46 45 45 45 46 47 47 48 48 49 49 50 50 50 51 51 50 50 51 51 51 51 51 51 50 50 49 49 49 48 47 47 47 48 48 49 49 49
44 44 44 45 45 46 46 47 48 48 48 48 49 49 49 50 50 51 51 51 50 49 49 50 50 50 50 49 49 48 47 47 47 47 47 47 47 48
43 44 44 44 45 46 46 47 47 47 48 48 48 49 49 49 49 49 49 49 48 48 48 48 49 49 49 49 49 49 49 48 48 48 48 47 46 46
43 44 44 45 45 46 46 47 47 47 48 48 48 48 48 48 48 47 47 46 46 46 46 47 47 48 48 48 48 49 49 49 48 48 48 47 46 45
43 43 44 45 45 45 46 46 46 47 47 47 47 47 47 46 46 45 45 44 44 45 45 46 47 47 48 47 47 47 49 48 47 46 46 46 45 45
43 44 45 45 45 46 46 45 46 46 46 46 45 45 45 44 44 43 43 43 43 43 43 44 45 46 47 47 47 46 46 47 46 46 45 45 45 44
44 45 45 45 46 46 45 45 45 45 44 44 44 44 43 43 42 42 42 42 42 42 42 43 44 44 45 45 44 44 44 45 45 45 44 45 45 43
43 44 44 44 45 45 45 45 44 44 43 43 43 42 42 41 41 41 40 40 41 41 41 41 41 42 42 42 41 41 42 42 43 43 42 43 43 42
Wind_Direction
272 272 272 272 272 272 272 272 270 268 266 266 267 266 265 264 264 264 265 265 265 266 266 266 266 266 265 264 264 263 263 263 263 263 263 263 262 262
273 273 272 272 272 273 273 273 271 269 267 266 267 267 266 265 265 265 266 266 266 266 266 267 267 267 266 265 265 265 265 264 264 264 263 263 262 262
273 273 273 272 272 273 272 273 272 269 268 267 268 267 267 267 266 266 267 266 266 267 267 267 267 267 268 267 266 266 265 265 264 264 264 264 263 263
273 274 274 273 273 273 273 273 272 270 268 267 267 267 267 267 267 267 267 267 267 268 269 268 268 269 269 268 268 267 266 265 264 264 264 264 264 263
273 274 274 274 273 273 273 273 273 272 270 268 268 268 268 268 268 268 268 268 268 269 269 269 269 270 270 269 269 268 266 265 264 264 264 264 265 264
273 273 274 274 274 274 273 273 273 272 271 270 269 268 268 268 268 269 269 269 269 269 270 270 269 270 270 270 269 268 267 266 265 265 265 266 266 265
272 272 273 273 274 274 273 273 273 273 272 271 270 269 268 268 268 269 269 270 270 270 270 270 269 269 268 268 268 267 267 266 266 266 267 267 267 267
272 272 273 273 273 274 274 274 275 275 274 272 270 270 269 269 269 270 270 271 270 270 271 271 269 268 269 269 268 267 266 266 266 267 268 269 268 267
272 272 272 272 273 274 275 275 276 276 275 273 272 271 270 270 271 272 272 272 272 271 271 270 270 268 268 268 268 268 267 267 267 267 268 268 268 267
272 272 272 272 273 274 275 275 276 276 275 274 273 273 272 272 273 273 272 273 272 272 271 270 270 269 269 268 268 268 268 268 268 268 268 268 268 268
272 272 273 273 274 274 275 276 276 276 275 276 275 275 275 274 274 273 273 272 272 273 272 271 270 269 269 269 269 269 268 268 269 269 269 269 269 269
271 272 273 273 274 274 274 275 275 276 276 276 276 276 277 276 275 274 274 273 273 273 272 271 271 269 268 269 269 269 269 268 268 269 269 269 269 269
271 272 273 274 274 274 274 275 276 275 275 276 277 277 277 277 276 275 274 273 273 274 273 272 271 270 269 268 268 269 269 267 267 268 269 269 269 269
271 272 273 273 274 274 274 275 276 276 276 276 276 277 277 277 276 275 275 274 274 274 273 272 271 270 269 268 268 269 269 269 268 266 267 268 269 270
271 272 273 273 274 274 275 275 276 276 277 277 277 277 277 277 276 275 275 275 275 274 273 272 272 271 270 269 268 269 269 269 269 268 268 268 269 270
272 272 273 273 274 275 275 276 277 277 277 278 278 278 279 279 277 276 276 276 275 274 273 273 273 272 270 269 269 269 270 270 270 269 269 269 270 270
273 273 273 274 274 275 276 276 277 278 278 279 279 279 280 280 279 278 278 277 275 274 273 272 272 271 271 270 269 270 270 271 271 270 269 270 270 271
273 273 274 275 276 276 277 278 278 278 279 279 280 280 280 281 281 280 279 277 275 274 273 273 272 271 271 271 270 271 271 271 271 271 271 270 270 271
274 274 275 276 277 278 278 278 278 279 279 279 279 280 281 281 281 280 278 277 275 274 273 273 272 272 271 271 271 270 270 269 270 271 271 270 269 270
275 276 277 277 278 279 279 279 279 279 279 279 279 279 280 281 280 279 277 276 275 273 273 273 272 272 272 271 270 270 270 269 269 269 270 270 269 270
277 277 278 278 279 279 279 279 279 279 279 279 279 280 280 281 280 279 277 276 275 274 273 273 272 272 272 271 271 269 269 268 269 269 270 270 270 270
277 278 278 278 278 279 279 280 280 279 279 279 280 280 280 280 279 279 278 276 275 275 274 273 272 272 272 272 271 270 268 267 268 270 270 271 271 270
278 278 278 278 278 278 279 279 280 279 279 279 280 279 280 280 279 279 279 277 277 276 275 274 273 273 273 272 272 270 269 268 268 268 269 271 271 271
Height
5644 5643 5643 5642 5641 5640 5639 5638 5638 5637 5638 5637 5637 5637 5637 5638 5638 5639 5639 5640 5640 5640 5641 5641 5641 5641 5641 5641 5642 5643 5644 5644 5645 5646 5647 5648 5650 5651
5631 5630 5629 5628 5627 5626 5625 5624 5623 5623 5624 5624 5623 5623 5623 5623 5624 5624 5625 5625 5625 5626 5626 5626 5625 5625 5626 5626 5626 5626 5627 5627 5628 5628 5629 5630 5631 5633
5618 5617 5616 5615 5614 5613 5612 5610 5609 5609 5609 5610 5609 5609 5609 5609 5609 5609 5610 5610 5610 5610 5610 5610 5610 5610 5610 5610 5610 5610 5610 5610 5610 5610 5611 5612 5613 5615
5605 5603 5602 5601 5600 5599 5598 5597 5596 5595 5595 5596 5595 5595 5595 5594 5595 5595 5595 5595 5595 5594 5594 5594 5594 5594 5593 5593 5593 5593 5593 5593 5593 5593 5594 5595 5595 5595
5591 5590 5589 5588 5587 5586 5585 5584 5583 5582 5581 5582 5582 5581 5581 5580 5580 5580 5579 5579 5579 5579 5579 5579 5578 5577 5577 5577 5576 5576 5576 5576 5576 5576 5576 5576 5577 5578
5578 5577 5576 5575 5574 5573 5572 5571 5570 5569 5568 5568 5568 5567 5567 5566 5566 5566 5565 5564 5563 5563 5563 5562 5562 5561 5560 5560 5560 5560 5559 5559 5559 5559 5559 5560 5560 5560
5565 5564 5564 5562 5561 5560 5559 5559 5557 5556 5555 5555 5554 5554 5553 5552 5552 5551 5551 5549 5548 5547 5547 5546 5546 5545 5544 5544 5543 5543 5543 5542 5542 5542 5542 5542 5542 5543
5552 5552 5551 5550 5549 5548 5547 5546 5544 5543 5542 5542 5541 5540 5539 5538 5537 5536 5535 5535 5534 5533 5531 5530 5529 5529 5528 5528 5527 5527 5527 5526 5526 5526 5525 5525 5525 5525
5540 5539 5538 5537 5536 5535 5534 5532 5531 5530 5529 5528 5528 5526 5525 5525 5524 5523 5521 5519 5517 5516 5516 5515 5513 5513 5512 5511 5511 5511 5511 5511 5510 5509 5509 5508 5508 5507
5527 5526 5525 5524 5523 5522 5521 5520 5518 5516 5516 5515 5514 5513 5511 5510 5509 5508 5506 5505 5503 5500 5500 5500 5498 5497 5496 5495 5495 5495 5495 5494 5494 5493 5493 5492 5492 5491
5514 5513 5512 5511 5510 5509 5508 5507 5505 5503 5501 5500 5499 5498 5497 5495 5494 5493 5491 5490 5489 5485 5484 5484 5483 5483 5482 5480 5479 5479 5478 5478 5478 5477 5476 5476 5475 5475
5500 5500 5499 5498 5496 5495 5494 5493 5492 5490 5488 5487 5485 5484 5482 5480 5478 5477 5476 5475 5474 5472 5469 5469 5468 5467 5468 5466 5464 5463 5463 5462 5462 5462 5461 5460 5459 5459
5487 5486 5485 5484 5483 5481 5480 5479 5478 5477 5475 5473 5471 5470 5468 5466 5464 5462 5460 5459 5458 5457 5455 5454 5453 5452 5451 5452 5451 5449 5448 5447 5447 5446 5445 5445 5444 5443
5472 5472 5471 5470 5469 5467 5466 5465 5464 5462 5460 5459 5457 5455 5453 5451 5449 5447 5445 5443 5442 5441 5439 5438 5438 5437 5436 5436 5436 5435 5433 5432 5431 5431 5431 5430 5429 5428
5458 5457 5457 5456 5455 5453 5452 5451 5449 5448 5446 5444 5442 5440 5438 5436 5434 5432 5429 5428 5426 5424 5423 5422 5421 5421 5421 5421 5421 5420 5419 5418 5416 5416 5415 5415 5414 5414
5444 5443 5442 5441 5440 5439 5438 5436 5435 5433 5431 5430 5427 5425 5423 5420 5418 5416 5414 5412 5411 5409 5407 5406 5405 5405 5405 5405 5405 5404 5403 5403 5402 5401 5400 5400 5399 5398
5430 5429 5429 5428 5427 5425 5424 5422 5420 5418 5416 5415 5413 5410 5408 5406 5403 5401 5399 5397 5396 5394 5393 5391 5390 5389 5390 5390 5389 5389 5388 5387 5386 5386 5386 5386 5385 5383
5417 5416 5415 5414 5413 5411 5410 5408 5406 5404 5402 5400 5397 5395 5393 5391 5388 5386 5383 5382 5381 5379 5378 5376 5375 5374 5375 5375 5374 5374 5373 5372 5371 5371 5370 5371 5371 5369
5403 5402 5401 5400 5398 5397 5395 5393 5391 5389 5387 5385 5383 5380 5378 5376 5374 5371 5369 5367 5366 5365 5363 5362 5360 5360 5360 5361 5360 5358 5358 5357 5356 5356 5356 5355 5356 5355
5390 5389 5387 5386 5384 5382 5381 5379 5376 5374 5372 5370 5368 5366 5364 5361 5359 5357 5355 5353 5352 5350 5349 5347 5346 5345 5345 5345 5346 5345 5342 5342 5342 5342 5341 5341 5341 5341
5376 5375 5373 5371 5369 5368 5366 5364 5362 5360 5357 5355 5353 5351 5349 5347 5345 5343 5341 5339 5337 5336 5335 5334 5332 5331 5329 5329 5330 5331 5329 5326 5326 5327 5327 5327 5327 5327
5362 5360 5358 5356 5355 5353 5351 5349 5347 5345 5343 5341 5339 5337 5335 5333 5331 5329 5327 5325 5324 5322 5321 5320 5318 5317 5316 5315 5315 5315 5315 5314 5312 5312 5312 5311 5311 5312
5347 5346 5344 5342 5340 5338 5336 5335 5333 5331 5329 5327 5326 5324 5322 5320 5318 5316 5314 5312 5311 5309 5308 5307 5305 5303 5302 5301 5301 5301 5301 5300 5299 5300 5299 5297 5297 5297